| time (UTC) | temp F | wind direction | speed MPH | gust MPH | rain 1hr in | rain 24hr in | rain mn in | humidity % | barometer mb |
| 20260503234213 | 75 | 293 | 2.0 | 2.0 | 0.00 | 0.00 | 0.00 | 43 | 1002.0 |
| 20260503232713 | 75 | 293 | 1.0 | 2.0 | 0.00 | 0.00 | 0.00 | 43 | 1002.4 |
| 20260503231213 | 74 | 293 | 2.0 | 3.0 | 0.00 | 0.00 | 0.00 | 44 | 1002.4 |
| 20260503225713 | 75 | 293 | 2.0 | 2.0 | 0.00 | 0.00 | 0.00 | 43 | 1002.4 |
| 20260503224213 | 74 | 315 | 3.0 | 5.0 | 0.00 | 0.00 | 0.00 | 44 | 1002.7 |
| 20260503222713 | 76 | 338 | 4.0 | 5.0 | 0.00 | 0.00 | 0.00 | 44 | 1003.0 |
| 20260503221213 | 74 | 315 | 3.0 | 5.0 | 0.00 | 0.00 | 0.00 | 44 | 1003.0 |
| 20260503215713 | 74 | 338 | 4.0 | 5.0 | 0.00 | 0.00 | 0.00 | 43 | 1003.0 |
| 20260503214213 | 74 | 270 | 3.0 | 5.0 | 0.00 | 0.00 | 0.00 | 48 | 1003.0 |
| 20260503212713 | 74 | 315 | 3.0 | 5.0 | 0.00 | 0.00 | 0.00 | 48 | 1003.4 |
| 20260503211213 | 75 | 315 | 3.0 | 4.0 | 0.00 | 0.00 | 0.00 | 46 | 1003.7 |
| 20260503205713 | 73 | 315 | 2.0 | 3.0 | 0.00 | 0.00 | 0.00 | 47 | 1003.4 |
| 20260503204213 | 73 | 248 | 3.0 | 5.0 | 0.00 | 0.00 | 0.00 | 48 | 1003.7 |
| 20260503202713 | 72 | 315 | 1.0 | 3.0 | 0.00 | 0.00 | 0.00 | 44 | 1003.7 |
| 20260503201213 | 72 | 293 | 5.0 | 7.0 | 0.00 | 0.00 | 0.00 | 42 | 1004.4 |
| 20260503195713 | 73 | 315 | 5.0 | 5.0 | 0.00 | 0.00 | 0.00 | 44 | 1004.4 |
| 20260503194213 | 73 | 338 | 5.0 | 6.0 | 0.00 | 0.00 | 0.00 | 50 | 1004.7 |
| 20260503192713 | 73 | 293 | 3.0 | 5.0 | 0.00 | 0.00 | 0.00 | 49 | 1004.7 |
| 20260503191213 | 72 | 270 | 3.0 | 3.0 | 0.00 | 0.00 | 0.00 | 51 | 1004.7 |
| 20260503185713 | 74 | 315 | 2.0 | 3.0 | 0.00 | 0.00 | 0.00 | 48 | 1005.1 |
| 20260503184212 | 75 | 315 | 3.0 | 4.0 | 0.00 | 0.00 | 0.00 | 46 | 1005.1 |
| 20260503182712 | 71 | 338 | 1.0 | 2.0 | 0.00 | 0.00 | 0.00 | 55 | 1005.1 |
| 20260503181212 | 70 | 315 | 3.0 | 5.0 | 0.00 | 0.00 | 0.00 | 55 | 1005.4 |
| 20260503175712 | 72 | 338 | 3.0 | 3.0 | 0.00 | 0.00 | 0.00 | 53 | 1005.4 |
| 20260503174212 | 74 | 45 | 2.0 | 2.0 | 0.00 | 0.00 | 0.00 | 46 | 1005.4 |
| 20260503172712 | 74 | 0 | 3.0 | 3.0 | 0.00 | 0.00 | 0.00 | 49 | 1005.4 |
| 20260503171212 | 71 | 23 | 4.0 | 7.0 | 0.00 | 0.00 | 0.00 | 49 | 1005.4 |
| 20260503131212 | 59 | 0 | 1.0 | 2.0 | 0.00 | 0.00 | 0.00 | 68 | 1005.1 |
| 20260503081213 | 57 | 23 | 0.0 | 0.0 | 0.00 | 0.00 | 0.00 | 66 | 1005.8 |
| 20260503072713 | 61 | 90 | 0.0 | 0.0 | 0.00 | 0.00 | 0.00 | 57 | 1005.8 |
| 20260503071213 | 63 | 45 | 1.0 | 2.0 | 0.00 | 0.00 | 0.00 | 52 | 1005.8 |
| 20260503054213 | 63 | 23 | 0.0 | 1.0 | 0.00 | 0.00 | 0.00 | 53 | 1005.8 |
| 20260503052713 | 63 | 23 | 0.0 | 0.0 | 0.00 | 0.00 | 0.00 | 56 | 1005.4 |
| 20260503051213 | 63 | 0 | 1.0 | 1.0 | 0.00 | 0.00 | 0.00 | 56 | 1005.8 |
| 20260503045713 | 64 | 45 | 0.0 | 0.0 | 0.00 | 0.00 | 0.00 | 53 | 1005.4 |
| 20260503044213 | 65 | 23 | 0.0 | 0.0 | 0.00 | 0.00 | 0.00 | 51 | 1005.8 |
| 20260503042713 | 66 | 0 | 0.0 | 1.0 | 0.00 | 0.00 | 0.00 | 49 | 1005.4 |
| 20260503041213 | 66 | 68 | 1.0 | 2.0 | 0.00 | 0.00 | 0.00 | 50 | 1005.4 |
| 20260503035713 | 66 | 338 | 3.0 | 4.0 | 0.00 | 0.00 | 0.00 | 50 | 1004.7 |
| 20260503034213 | 66 | 0 | 1.0 | 2.0 | 0.00 | 0.00 | 0.00 | 51 | 1004.7 |
| 20260503032713 | 66 | 23 | 2.0 | 2.0 | 0.00 | 0.00 | 0.00 | 51 | 1004.4 |
| 20260503031213 | 67 | 315 | 0.0 | 0.0 | 0.00 | 0.00 | 0.00 | 52 | 1004.4 |
| 20260503025713 | 67 | 68 | 1.0 | 2.0 | 0.00 | 0.00 | 0.00 | 52 | 1004.4 |
| 20260503024212 | 68 | 0 | 4.0 | 5.0 | 0.00 | 0.00 | 0.00 | 51 | 1004.1 |
| 20260503022713 | 69 | 338 | 2.0 | 3.0 | 0.00 | 0.00 | 0.00 | 51 | 1004.4 |
| 20260503021212 | 69 | 338 | 2.0 | 3.0 | 0.00 | 0.00 | 0.00 | 52 | 1004.7 |
| 20260503015712 | 69 | 338 | 4.0 | 5.0 | 0.00 | 0.00 | 0.00 | 52 | 1004.4 |
| 20260503014212 | 69 | 315 | 3.0 | 3.0 | 0.00 | 0.00 | 0.00 | 53 | 1004.4 |
| 20260503012712 | 69 | 338 | 3.0 | 4.0 | 0.00 | 0.00 | 0.00 | 53 | 1004.4 |
| 20260503011212 | 70 | 338 | 5.0 | 6.0 | 0.00 | 0.00 | 0.00 | 52 | 1004.7 |
| 20260503005712 | 70 | 338 | 4.0 | 7.0 | 0.00 | 0.00 | 0.00 | 52 | 1004.4 |
| 20260503004212 | 71 | 338 | 2.0 | 2.0 | 0.00 | 0.00 | 0.00 | 52 | 1005.1 |
| 20260503002712 | 70 | 68 | 3.0 | 5.0 | 0.00 | 0.00 | 0.00 | 54 | 1004.7 |
| 20260503001212 | 71 | 315 | 5.0 | 5.0 | 0.00 | 0.00 | 0.00 | 53 | 1004.7 |
| 20260502235712 | 70 | 293 | 4.0 | 5.0 | 0.00 | 0.00 | 0.00 | 53 | 1005.1 |